When you browse on this site, cookies collect data to enhance your experience and personalize the content and advertising you see.
Visit our Privacy Policy to learn more. By continuing to use the site, you agree to this use of cookies and data.
  • In Lithuania
  • List of Countries
  • For 7 days
  • Water Temperature
  • Weather Map
  • Weather Widgets
  • user-avatar
    Login

    Hourly Weather São Paulo

    Today, 22 January, Wednesday

    Time Temperature Precipitation Wind Pressure Humidity
    00:00 +20°C° 0 mm 3 mps 696 mmHg 83%
    01:00 +20°C° 0 mm 3 mps 695 mmHg 83%
    02:00 +20°C° 0 mm 2 mps 694 mmHg 83%
    03:00 +19°C° 0 mm 2 mps 694 mmHg 84%
    04:00 +19°C° 0 mm 2 mps 694 mmHg 85%
    05:00 +19°C° 0 mm 2 mps 694 mmHg 85%
    06:00 +19°C° 0 mm 2 mps 694 mmHg 86%
    07:00 +20°C° 0 mm 2 mps 695 mmHg 79%
    08:00 +23°C° 0 mm 2 mps 695 mmHg 72%
    09:00 +24°C° 0 mm 3 mps 696 mmHg 68%
    10:00 +26°C° 0 mm 2 mps 696 mmHg 63%
    11:00 +27°C° 0 mm 2 mps 696 mmHg 59%
    12:00 +29°C° 0 mm 2 mps 696 mmHg 54%
    13:00 +28°C° 0.4 mm 3 mps 695 mmHg 59%
    14:00 +27°C° 0.4 mm 4 mps 695 mmHg 64%
    15:00 +26°C° 0.4 mm 4 mps 694 mmHg 69%
    16:00 +25°C° 0.3 mm 4 mps 694 mmHg 72%
    17:00 +23°C° 0.3 mm 5 mps 694 mmHg 75%
    18:00 +22°C° 0.3 mm 5 mps 694 mmHg 79%
    19:00 +22°C° 0.1 mm 4 mps 694 mmHg 80%
    20:00 +22°C° 0.1 mm 4 mps 695 mmHg 80%
    21:00 +21°C° 0.1 mm 4 mps 695 mmHg 81%
    22:00 +21°C° 0.4 mm 4 mps 695 mmHg 81%
    23:00 +21°C° 0.4 mm 4 mps 695 mmHg 80%

    Tomorrow, 23 January, Thursday

    Time Temperature Precipitation Wind Pressure Humidity
    00:00 +20°C° 0.4 mm 3 mps 695 mmHg 80%
    01:00 +20°C° 1 mm 3 mps 694 mmHg 81%
    02:00 +20°C° 1 mm 3 mps 694 mmHg 83%
    03:00 +19°C° 1 mm 3 mps 693 mmHg 84%
    04:00 +19°C° 1.1 mm 3 mps 693 mmHg 84%
    05:00 +19°C° 1.1 mm 3 mps 693 mmHg 84%
    06:00 +19°C° 1.1 mm 3 mps 693 mmHg 85%
    07:00 +19°C° 1.1 mm 2 mps 693 mmHg 85%
    08:00 +19°C° 1.1 mm 2 mps 694 mmHg 86%
    09:00 +20°C° 1.1 mm 2 mps 694 mmHg 86%
    10:00 +19°C° 1.2 mm 2 mps 694 mmHg 87%
    11:00 +19°C° 1.2 mm 2 mps 694 mmHg 87%
    12:00 +19°C° 1.2 mm 2 mps 693 mmHg 88%
    13:00 +19°C° 2 mm 2 mps 693 mmHg 89%
    14:00 +19°C° 2 mm 2 mps 693 mmHg 89%
    15:00 +19°C° 2 mm 2 mps 692 mmHg 90%
    16:00 +19°C° 1.8 mm 2 mps 692 mmHg 90%
    17:00 +19°C° 1.8 mm 2 mps 692 mmHg 90%
    18:00 +19°C° 1.8 mm 2 mps 692 mmHg 90%
    19:00 +19°C° 0.4 mm 3 mps 692 mmHg 90%
    20:00 +19°C° 0.4 mm 3 mps 692 mmHg 91%
    21:00 +19°C° 0.4 mm 3 mps 693 mmHg 91%
    22:00 +19°C° 0.1 mm 3 mps 692 mmHg 91%
    23:00 +19°C° 0.1 mm 3 mps 692 mmHg 90%

    Day after tomorrow, 24 January, Friday

    Time Temperature Precipitation Wind Pressure Humidity
    00:00 +19°C° 0.1 mm 3 mps 692 mmHg 89%
    01:00 +19°C° 0 mm 3 mps 691 mmHg 88%
    02:00 +18°C° 0 mm 3 mps 691 mmHg 87%
    03:00 +18°C° 0 mm 2 mps 691 mmHg 86%
    04:00 +18°C° 0 mm 2 mps 691 mmHg 86%
    05:00 +18°C° 0 mm 2 mps 691 mmHg 86%
    06:00 +18°C° 0 mm 2 mps 691 mmHg 86%
    07:00 +19°C° 0 mm 2 mps 692 mmHg 80%
    08:00 +21°C° 0 mm 2 mps 692 mmHg 75%
    09:00 +22°C° 0 mm 3 mps 693 mmHg 69%
    10:00 +24°C° 0.2 mm 3 mps 693 mmHg 66%
    11:00 +25°C° 0.2 mm 4 mps 693 mmHg 63%
    12:00 +26°C° 0.2 mm 4 mps 693 mmHg 61%
    13:00 +26°C° 0.3 mm 5 mps 693 mmHg 61%
    14:00 +26°C° 0.3 mm 5 mps 693 mmHg 61%
    15:00 +26°C° 0.3 mm 5 mps 693 mmHg 61%
    16:00 +25°C° 0.1 mm 5 mps 693 mmHg 64%
    17:00 +23°C° 0.1 mm 5 mps 693 mmHg 68%
    18:00 +22°C° 0.1 mm 5 mps 693 mmHg 71%
    19:00 +22°C° 0 mm 4 mps 693 mmHg 75%
    20:00 +21°C° 0 mm 4 mps 694 mmHg 79%
    21:00 +20°C° 0 mm 3 mps 694 mmHg 82%
    22:00 +20°C° 0 mm 3 mps 694 mmHg 83%
    23:00 +20°C° 0 mm 2 mps 694 mmHg 83%

    25 January, Saturday

    Time Temperature Precipitation Wind Pressure Humidity
    00:00 +19°C° 0 mm 2 mps 695 mmHg 84%
    01:00 +20°C° 0 mm 1 mps 694 mmHg 84%
    02:00 +20°C° 0 mm 1 mps 694 mmHg 84%
    03:00 +20°C° 0 mm 1 mps 694 mmHg 84%
    04:00 +20°C° 0 mm 1 mps 694 mmHg 84%
    05:00 +19°C° 0 mm 1 mps 694 mmHg 84%
    06:00 +17°C° 0 mm 0 mps 695 mmHg 84%
    07:00 +19°C° 0 mm 0 mps 695 mmHg 75%
    08:00 +23°C° 0 mm 1 mps 696 mmHg 67%
    09:00 +25°C° 0 mm 1 mps 697 mmHg 58%
    10:00 +27°C° 0 mm 1 mps 697 mmHg 52%
    11:00 +29°C° 0 mm 1 mps 697 mmHg 45%
    12:00 +31°C° 0 mm 1 mps 697 mmHg 39%
    13:00 +31°C° 0 mm 1 mps 697 mmHg 38%
    14:00 +31°C° 0 mm 1 mps 696 mmHg 37%
    15:00 +32°C° 0 mm 2 mps 696 mmHg 37%
    16:00 +30°C° 0 mm 2 mps 696 mmHg 44%
    17:00 +29°C° 0 mm 2 mps 696 mmHg 52%
    18:00 +28°C° 0 mm 2 mps 696 mmHg 60%
    19:00 +27°C° 0 mm 2 mps 696 mmHg 63%
    20:00 +26°C° 0 mm 2 mps 696 mmHg 67%
    21:00 +24°C° 0 mm 2 mps 696 mmHg 71%
    22:00 +24°C° 0 mm 2 mps 696 mmHg 72%
    23:00 +24°C° 0 mm 2 mps 696 mmHg 72%

    26 January, Sunday

    Time Temperature Precipitation Wind Pressure Humidity
    00:00 +23°C° 0 mm 2 mps 696 mmHg 73%
    01:00 +23°C° 0 mm 2 mps 696 mmHg 75%
    02:00 +23°C° 0 mm 2 mps 696 mmHg 78%
    03:00 +21°C° 0 mm 2 mps 696 mmHg 81%
    04:00 +22°C° 0 mm 1 mps 696 mmHg 81%
    05:00 +22°C° 0 mm 1 mps 696 mmHg 81%
    06:00 +22°C° 0 mm 1 mps 696 mmHg 81%
    07:00 +24°C° 0 mm 1 mps 697 mmHg 71%
    08:00 +26°C° 0 mm 1 mps 697 mmHg 60%
    09:00 +28°C° 0 mm 1 mps 698 mmHg 50%
    10:00 +30°C° 0 mm 1 mps 698 mmHg 43%
    11:00 +32°C° 0 mm 1 mps 698 mmHg 36%
    12:00 +34°C° 0 mm 1 mps 699 mmHg 29%
    13:00 +34°C° 0 mm 1 mps 698 mmHg 29%
    14:00 +35°C° 0 mm 2 mps 698 mmHg 30%
    15:00 +35°C° 0 mm 2 mps 697 mmHg 31%
    16:00 +34°C° 0 mm 2 mps 697 mmHg 36%
    17:00 +31°C° 0 mm 3 mps 697 mmHg 42%
    18:00 +30°C° 0 mm 3 mps 696 mmHg 47%
    19:00 +29°C° 0 mm 3 mps 696 mmHg 48%
    20:00 +28°C° 0 mm 2 mps 697 mmHg 48%
    21:00 +26°C° 0 mm 2 mps 697 mmHg 49%
    22:00 +26°C° 0 mm 2 mps 697 mmHg 48%
    23:00 +25°C° 0 mm 2 mps 697 mmHg 48%

    27 January, Monday

    Time Temperature Precipitation Wind Pressure Humidity
    00:00 +25°C° 0 mm 2 mps 697 mmHg 48%
    01:00 +24°C° 0 mm 2 mps 697 mmHg 54%
    02:00 +24°C° 0 mm 2 mps 697 mmHg 61%
    03:00 +23°C° 0 mm 2 mps 696 mmHg 67%
    04:00 +23°C° 0 mm 1 mps 697 mmHg 68%
    05:00 +23°C° 0 mm 1 mps 697 mmHg 70%
    06:00 +23°C° 0 mm 1 mps 697 mmHg 71%
    07:00 +25°C° 0 mm 1 mps 698 mmHg 66%
    08:00 +27°C° 0 mm 1 mps 698 mmHg 60%
    09:00 +29°C° 0 mm 2 mps 699 mmHg 55%
    10:00 +30°C° 0 mm 2 mps 699 mmHg 49%
    11:00 +32°C° 0 mm 2 mps 699 mmHg 43%
    12:00 +34°C° 0 mm 2 mps 699 mmHg 36%
    13:00 +34°C° 0 mm 2 mps 699 mmHg 37%
    14:00 +34°C° 0 mm 2 mps 698 mmHg 38%
    15:00 +34°C° 0 mm 2 mps 698 mmHg 39%
    16:00 +33°C° 0 mm 3 mps 698 mmHg 42%
    17:00 +31°C° 0 mm 3 mps 697 mmHg 46%
    18:00 +30°C° 0 mm 3 mps 697 mmHg 49%
    19:00 +29°C° 0 mm 2 mps 697 mmHg 50%
    20:00 +28°C° 0 mm 2 mps 698 mmHg 50%
    21:00 +27°C° 0 mm 1 mps 698 mmHg 50%
    22:00 +27°C° 0 mm 1 mps 698 mmHg 52%
    23:00 +26°C° 0 mm 1 mps 698 mmHg 54%
    Show more